Погода в Малой Малышевке

Россия / Самарская область     53°03′33″N   50°57′37″E
темп.,
°C
ветер,
м/с
пор.,
м/с
влажн.,
%
обл.,
%
осадки,
мм/ч
давл.,
гПа
погр.,
м
14 июня, пн
пн1401:00+19всв228498 0.1 101413
04:00+17в2283100 0.1 101422
07:00+19в3577100 0.0 1015158
10:00+24всв3356100 0.0 1015501
13:00+28всв2349100 0.0 10141107
16:00+29вюв3346100 0.0 10131827
19:00+27всв226258 0.0 101331
22:00+18юв3590100 1.1 101390
15 июня, вт
вт1501:00+18зюз41193100 0.6 1014380
04:00+18ю2396100 3.0 101582
07:00+19в248987 0.4 1015130
10:00+24в566388 0.4 1014694
13:00+28вюв5738100 0.0 10131466
16:00+29вюв594393 0.0 10111851
19:00+26в41062100 0.0 1010255
22:00+22в51360100 0.0 1009269
16 июня, ср
ср1601:00+22юв5144882 0.0 1008342
04:00+18юв396495 0.0 1008172
07:00+21ю3869100 0.0 1008273
10:00+25ююз4656100 0.0 1009738
13:00+28ююз575077 0.0 10081674
16:00+28ююз59465 0.0 10082470
19:00+23юз487499 0.9 1007338
22:00+19юз39886 1.2 1008222
17 июня, чт
чт1701:00+18зюз3895100 0.1 1007182
04:00+18зсз499788 0.1 1008275
07:00+17ссз61192100 0.0 1011579
10:00+20ссз796936 0.0 10121014
13:00+22ссз79454 0.0 10141570
16:00+22ссз89450 0.0 10151826
19:00+20ссз59610 0.0 10161214
22:00+16ссз513690 0.0 1017529
18 июня, пт
пт1801:00+14ссз411740 0.0 1018272
04:00+12с411770 0.0 1019212
07:00+16ссв410630 0.0 1021425
10:00+20ссв59433 0.0 10211678
13:00+22с57429 0.0 10222286
16:00+22с67434 0.0 10222163
19:00+20с47580 0.0 1023562
22:00+15с34744 0.0 102465